Regional Weather Roundup
Issued by NWS Upton, NY

Current Version | Previous Version | Graphics & Text | Print | Product List | Glossary Off
Versions: 1 2 3 4 5 6 7 8 9 10 11 12 13 14 15 16 17 18 19 20 21 22 23 24 25 26 27 28 29 30 31 32 33 34 35 36 37 38 39 40 41 42 43 44 45 46 47 48 49 50

000
ASUS41 KOKX 031004
RWROKX

REGIONAL WEATHER ROUNDUP
NATIONAL WEATHER SERVICE NEW YORK NY
600 AM EDT THU SEP 03 2015

NOTE: "FAIR" INDICATES FEW OR NO CLOUDS BELOW 12,000 FEET WITH NO
SIGNIFICANT WEATHER AND/OR OBSTRUCTIONS TO VISIBILITY.

NYZ071-072-176-178-NJZ106-104-031100-
NEW YORK CITY METRO AREA


CITY           SKY/WX    TMP DP  RH WIND       PRES   REMARKS
CENTRAL PARK   CLEAR     75  64  68 CALM      29.89S
LAGUARDIA APRT CLEAR     77  65  66 N3        29.85S
KENNEDY INTL   CLEAR     75  67  76 N7        29.86S
NEWARK/LIBERTY PTCLDY    76  65  68 NW5       29.86S
BRNX BOT. GARD   N/A     70  66  88 CALM      29.88S
TETERBORO      CLEAR     71  64  78 CALM      29.85S
$$

NYZ177-179-078>081-031100-
LONG ISLAND NEW YORK

CITY           SKY/WX    TMP DP  RH WIND       PRES   REMARKS
FARMINGDALE    CLEAR     71  69  93 CALM      29.86R
ISLIP          FOG       72  71  97 CALM      29.84S VSB 1/4
SHIRLEY        CLOUDY    70  69  97 CALM      29.86S FOG
WESTHAMPTON    FOG       66  66 100 CALM      29.87S VSB 1/4
MONTAUK POINT    N/A     73  70  90 CALM      29.87S
$$

NYZ052-065-067-031100-
HUDSON VALLEY

CITY           SKY/WX    TMP DP  RH WIND       PRES   REMARKS
WHITE PLAINS   CLEAR     67  64  90 NW5       29.87S
NEWBURGH       CLEAR     64  64 100 CALM      29.89F
MONTGOMERY     FOG       61  61 100 CALM      29.88S VSB 1/4
POUGHKEEPSIE   CLEAR     63  60  90 CALM      29.87S
ALBANY         PTCLDY    65  62  90 CALM      29.89R
$$

NJZ001-105-106-008-010-013-015-019>022-104-031100-
NEW JERSEY

CITY           SKY/WX    TMP DP  RH WIND       PRES   REMARKS
NEWARK/LIBERTY PTCLDY    76  65  68 NW5       29.86S
TETERBORO      CLEAR     71  64  78 CALM      29.85S
CALDWELL       CLEAR     67  64  90 CALM      29.88S FOG
MORRISTOWN       N/A     61  57  88 CALM      29.88S FOG
SOMERVILLE     CLEAR     64  61  90 CALM      29.87R FOG
SUSSEX         MOCLDY    62  59  90 CALM      29.90R FOG
ANDOVER          N/A     62  62 100 CALM      29.91S
TRENTON        CLEAR     70  65  84 NW6       29.88R
MILLVILLE      CLEAR     69  67  93 W3        29.88S FOG
ATLANTIC CITY  CLEAR     69  66  90 NW5       29.87S FOG
WRIGHTSTOWN    CLEAR     69  67  92 N2        29.86R
TOMS RIVER     CLEAR     64  63  94 CALM      29.88R
BELMAR         CLEAR     70  63  78 NW5       29.87S
$$

PAZ047>061-062-071-031100-
EASTERN PENNSYLVANIA

CITY           SKY/WX    TMP DP  RH WIND       PRES   REMARKS
PHILADELPHIA   PTCLDY    77  64  64 N3        29.89R
ALLENTOWN      CLEAR     67  64  90 CALM      29.90S FOG
SCRANTON       CLEAR     65  61  87 CALM      29.94S FOG
$$

CTZ002-004>006-009-010-012-RIZ004-006-007-MAZ004-011-015-031100-
SOUTHERN NEW ENGLAND
 IN CT

CITY           SKY/WX    TMP DP  RH WIND       PRES   REMARKS
BRADLEY INTL   PTCLDY    64  62  93 NW3       29.85S
HARTFORD       CLEAR     67  65  93 CALM      29.85S
DANBURY        CLEAR     62  58  86 SW3       29.89S
WTRBRY/OXFORD  CLEAR     64  57  77 CALM      29.89S
BRIDGEPORT     CLEAR     70  65  84 N5        29.85S
MERIDEN        CLEAR     63  60  90 CALM      29.86S
NEW HAVEN      PTCLDY    65  63  93 CALM      29.85F
CHESTER        NOT AVBL
GROTON         FOG       65  65 100 CALM      29.84F VSB 1
WILLIMANTIC    CLEAR     62  59  90 CALM      29.86S FOG

 IN RI

CITY           SKY/WX    TMP DP  RH WIND       PRES   REMARKS
PROVIDENCE     PTCLDY    67  63  87 W3        29.85S
BLOCK ISLAND   PTCLDY    72  72 100 W12       29.86S
WESTERLY       CLEAR     63  61  93 CALM      29.85F FOG

 IN MA

CITY           SKY/WX    TMP DP  RH WIND       PRES   REMARKS
BOSTON         CLEAR     72  65  78 SW5       29.83S
WORCESTER      CLEAR     69  63  81 NW5       29.88S
WESTFIELD      MOCLDY    64  62  93 CALM      29.86S FOG
PROVINCETOWN     N/A     66  61  82 SW8       29.84S
NANTUCKET        N/A    N/A N/A N/A MISG      29.85S
$$

ANZ330-335-338-340-345-350-353-355-031100-
COASTAL MARINE OBSERVATIONS


STATION/POSITION TIME  SKY/WX   TEMP    WIND        PRES    VSBY  WAVE
                                AIR SEA DIR/SP/G                  HT/PER
                 (UTC)          (F)     (DEG/KT/KT) (MB)    (MI)  (FT/S)
NY HARB ENTRANCE 0850            75 76  280/  6/  8 1010.6          1/ 7
4S FIRE IS       NOT AVBL
20S FIRE ISLAND  0850            75 75  220/  4/  6 1010.7          2/ 7
GREAT SOUTH BAY  0915            76 78  360/  2/  4   N/A
23SW MTP         0950            74 72  240/  6/  6 1010.7          2/ 8
HUDSON CANYON    NOT AVBL
KINGS POINT      0900            74 74   50/  3/  4 1010.3
EXECUTION ROCKS  0900            73     310/  6/  6   N/A
CENTRAL LI SOUND NOT AVBL
EASTERN LI SOUND 0900            71 70  290/  4/  4   N/A
ROBBINS REEF     0900            76     330/  7/ 10 1009.9
$$


>>>>>>>>>>>>>>>>>>>>>>>>>>>> KEY <<<<<<<<<<<<<<<<<<<<<<<<<<<
>                                                          <
>     SKY/WX - SKY CONDITION/PRESENT WEATHER               <
>     TMP    - TEMPERATURE IN FAHRENHEIT                   <
>     DP     - DEWPOINT IN FAHRENHEIT                      <
>     RH     - RELATIVE HUMIDITY IN PERCENT                <
>     WIND   - DIRECTION AND SPEED IN MPH                  <
>     PRES   - MEAN SEA LEVEL PRESSURE IN INCHES OF HG     <
>     WCI    - WIND CHILL INDEX                            <
>     VSB    - VISIBILITY IN MILES                         <
>     HX     - HEAT INDEX                                  <
>     TC     - TEMPERATURE IN CELSIUS                      <
>     VRB    - VARIABLE WIND DIRECTION                     <
>                                                          <
>>>>>>>>>>>>>>>>>>>>>>>>>>>> KEY <<<<<<<<<<<<<<<<<<<<<<<<<<<




USA.gov is the U.S. government's official web portal to all federal, state and local government web resources and services.